Weather History for KAFF - April, 2013

Change the Weather History Date:

Tuesday, April 9, 2013

  Actual Average (KCOS) Record (KCOS)
Temperature  
Mean Temperature 17 °F 45 °F  
Max Temperature 25 °F 58 °F 80 °F (1977)
Min Temperature 8 °F 31 °F 5 °F (1959)
Degree Days  
Heating Degree Days 48 20  
Month to date heating degree days 192  
Since 1 July heating degree days 5560  
Cooling Degree Days 0 0  
Month to date cooling degree days 0  
Year to date cooling degree days 0  
Moisture  
Dew Point 8 °F    
Average Humidity 74    
Maximum Humidity 87    
Minimum Humidity 62    
Precipitation  
Precipitation 0.00 in 0.04 in 1.75 in (1944)
Month to date precipitation 0.31  
Year to date precipitation 1.97  
Snow  
Snow 0.00 in 0.20 in 7.90 in (1959)
Month to date snowfall 1.7  
Since 1 July snowfall 33.8  
Snow Depth -    
Sea Level Pressure  
Sea Level Pressure 29.89 in    
Wind  
Wind Speed 28 mph (NNW)    
Max Wind Speed 36 mph    
Max Gust Speed 48 mph    
Visibility 5 miles    
Events Snow    
T = Trace of Precipitation, MM = Missing Value Source: NWS Daily Summary

Daily Weather History Graph

Daily Weather History Graph

Search for Another Location

Airport or City:

Trip Planner

Search our weather history database for the weather conditions in past years. The results will help you decide how hot, cold, wet, or windy it might be!

Date:

Astronomy

Apr. 09, 2013 Rise Set
Actual Time 6:31 AM MDT 7:30 PM MDT
Civil Twilight 6:03 AM MDT 7:58 PM MDT
Nautical Twilight 5:31 AM MDT 8:30 PM MDT
Astronomical Twilight 4:57 AM MDT 9:04 PM MDT
Moon 5:54 AM MDT (4/9) 7:09 PM MDT (4/9)
Length of Visible Light 13h 54m
Length of Day
12h 59m
Waning Crescent, 0% of the Moon is Illuminated
Apr 9
Waning Crescent
Apr 10
New
Apr 18
First Quarter
Apr 25
Full
May 2
Last Quarter

Hourly Weather History & Observations

Time (MDT) Temp. Windchill Dew Point Humidity Pressure Visibility Wind Dir Wind Speed Gust Speed Precip Events Conditions
12:07 AM 26.6 °F 11.4 °F 21.2 °F 80% 29.72 in 10.0 mi NNW 25.3 mph 41.4 mph N/A   Overcast
12:17 AM 26.6 °F 10.6 °F 23.0 °F 86% 29.72 in 10.0 mi NNW 28.8 mph 34.5 mph N/A   Overcast
12:23 AM 26.6 °F 9.8 °F 21.2 °F 80% 29.71 in 10.0 mi NNW 32.2 mph 38.0 mph N/A   Overcast
12:58 AM 25.7 °F 9.3 °F 21.0 °F 82% 29.63 in 5.0 mi NNW 28.8 mph 39.1 mph 0.00 in Snow Light Snow
1:03 AM 24.8 °F 9.0 °F 21.2 °F 86% 29.71 in 2.5 mi NNW 25.3 mph 38.0 mph N/A Snow Light Snow
1:08 AM 24.8 °F 8.4 °F 21.2 °F 86% 29.72 in 1.8 mi North 27.6 mph 38.0 mph N/A Snow Light Snow
1:13 AM 24.8 °F 11.1 °F 21.2 °F 86% 29.73 in 2.0 mi NNW 18.4 mph 36.8 mph N/A Snow Light Snow
1:18 AM 24.8 °F 7.1 °F 21.2 °F 86% 29.72 in 3.0 mi NNW 33.4 mph 42.6 mph N/A   Overcast
1:23 AM 24.8 °F 7.3 °F 19.4 °F 80% 29.71 in 5.0 mi NNW 32.2 mph 42.6 mph N/A   Overcast
1:33 AM 23.0 °F 6.0 °F 19.4 °F 86% 29.71 in 2.5 mi NNW 27.6 mph 40.3 mph N/A Snow Light Snow
1:38 AM 23.0 °F 4.9 °F 19.4 °F 86% 29.71 in 1.2 mi NNW 32.2 mph 41.4 mph N/A Snow Light Snow
1:43 AM 23.0 °F 5.7 °F 19.4 °F 86% 29.71 in 1.0 mi NNW 28.8 mph 41.4 mph N/A Snow Light Snow
1:53 AM 23.0 °F 5.7 °F 19.4 °F 86% 29.71 in 1.0 mi NNW 28.8 mph 38.0 mph N/A Snow Light Snow
1:58 AM 22.3 °F 4.7 °F 19.0 °F 87% 29.66 in 1.0 mi North 28.8 mph 35.7 mph 0.00 in Snow Light Snow
2:23 AM 21.2 °F 3.3 °F 17.6 °F 86% 29.71 in 1.2 mi NNW 28.8 mph 39.1 mph N/A Snow Light Snow
2:28 AM 21.2 °F 3.0 °F 17.6 °F 86% 29.71 in 2.0 mi North 29.9 mph 38.0 mph N/A Snow Light Snow
2:41 AM 21.2 °F 2.2 °F 17.6 °F 86% 29.72 in 2.0 mi North 33.4 mph 40.3 mph N/A Snow Light Snow
2:46 AM 21.2 °F 2.2 °F 15.8 °F 80% 29.71 in 1.2 mi NNW 33.4 mph 40.3 mph N/A Snow Light Snow
2:51 AM 21.2 °F 3.5 °F 15.8 °F 80% 29.71 in 1.0 mi North 27.6 mph 41.4 mph N/A Snow Light Snow
2:56 AM 21.2 °F 2.7 °F 15.8 °F 80% 29.70 in 0.8 mi North 31.1 mph 41.4 mph N/A Snow Light Snow
2:58 AM 20.5 °F 0.7 °F 16.5 °F 85% 29.64 in 0.8 mi North 35.7 mph 48.3 mph 0.00 in Snow Light Snow
2:59 AM 19.4 °F 0.2 °F 15.8 °F 86% 29.70 in 0.8 mi North 31.1 mph 48.3 mph N/A Snow Light Snow
3:14 AM 19.4 °F 1.4 °F 15.8 °F 86% 29.72 in 1.2 mi NNW 26.5 mph 38.0 mph N/A Snow Light Snow
3:19 AM 19.4 °F 1.8 °F 15.8 °F 86% 29.73 in 2.5 mi North 25.3 mph 35.7 mph N/A Snow Light Snow
3:24 AM 19.4 °F 0.8 °F 14.0 °F 80% 29.73 in 3.0 mi North 28.8 mph 36.8 mph N/A Snow Light Snow
3:29 AM 19.4 °F -0.0 °F 14.0 °F 80% 29.72 in 2.5 mi North 32.2 mph 40.3 mph N/A Snow Light Snow
3:34 AM 19.4 °F 0.8 °F 14.0 °F 80% 29.74 in 1.8 mi North 28.8 mph 40.3 mph N/A Snow Light Snow
3:44 AM 17.6 °F -2.5 °F 12.2 °F 79% 29.74 in 2.0 mi North 32.2 mph 38.0 mph N/A Snow Light Snow
3:58 AM 18.0 °F -1.4 °F 12.7 °F 80% 29.71 in 2.5 mi North 29.9 mph 38.0 mph 0.00 in Snow Light Snow
4:18 AM 17.6 °F -3.1 °F 10.4 °F 73% 29.76 in 5.0 mi NNW 34.5 mph 41.4 mph N/A Snow Light Snow
4:23 AM 15.8 °F -4.1 °F 8.6 °F 73% 29.76 in 3.0 mi NNW 28.8 mph 41.4 mph N/A Snow Light Snow
4:33 AM 15.8 °F -3.4 °F 8.6 °F 73% 29.77 in 6.0 mi NNW 26.5 mph 39.1 mph N/A Snow Light Snow
4:43 AM 15.8 °F -4.4 °F 8.6 °F 73% 29.77 in 9.0 mi NNW 29.9 mph 40.3 mph N/A Snow Light Snow
4:57 AM 15.8 °F -4.7 °F 8.6 °F 73% 29.78 in 8.0 mi NNW 31.1 mph 43.7 mph N/A   Overcast
4:58 AM 15.8 °F -5.5 °F 8.6 °F 73% 29.76 in 8.0 mi NNW 34.5 mph 43.7 mph 0.00 in   Overcast
5:20 AM 14.0 °F -7.7 °F 8.6 °F 79% 29.78 in 6.0 mi NNW 33.4 mph 39.1 mph N/A Snow Blowing Snow
5:30 AM 14.0 °F -7.4 °F 6.8 °F 73% 29.77 in 4.0 mi NNW 32.2 mph 47.2 mph N/A Snow Blowing Snow
5:35 AM 14.0 °F -6.8 °F 6.8 °F 73% 29.76 in 5.0 mi NNW 29.9 mph 47.2 mph N/A Snow Blowing Snow
5:45 AM 15.8 °F -4.4 °F 8.6 °F 73% 29.77 in 9.0 mi NNW 29.9 mph 42.6 mph N/A Snow Blowing Snow
5:47 AM 15.8 °F -4.1 °F 8.6 °F 73% 29.77 in 7.0 mi NNW 28.8 mph 42.6 mph N/A   Overcast
5:49 AM 15.8 °F -5.8 °F 8.6 °F 73% 29.77 in 6.0 mi NNW 35.7 mph 46.0 mph N/A Snow Light Snow
5:58 AM 15.1 °F -5.7 °F 8.2 °F 74% 29.76 in 5.0 mi NNW 31.1 mph 46.0 mph 0.00 in Snow Light Snow
6:03 AM 14.0 °F -6.2 °F 8.6 °F 79% 29.79 in 4.0 mi NNW 27.6 mph 43.7 mph N/A Snow Light Snow
6:13 AM 14.0 °F -6.5 °F 6.8 °F 73% 29.80 in 5.0 mi NNW 28.8 mph 40.3 mph N/A Snow Light Snow
6:18 AM 14.0 °F -6.2 °F 8.6 °F 79% 29.80 in 4.0 mi NNW 27.6 mph 40.3 mph N/A Snow Light Snow
6:23 AM 14.0 °F -6.2 °F 8.6 °F 79% 29.80 in 5.0 mi NNW 27.6 mph 40.3 mph N/A Snow Light Snow
6:33 AM 14.0 °F -7.1 °F 6.8 °F 73% 29.81 in 3.0 mi NNW 31.1 mph 39.1 mph N/A Snow Light Snow
6:43 AM 14.0 °F -7.4 °F 6.8 °F 73% 29.82 in 4.0 mi NNW 32.2 mph 40.3 mph N/A Snow Blowing Snow
6:48 AM 14.0 °F -6.8 °F 6.8 °F 73% 29.83 in 9.0 mi NNW 29.9 mph 39.1 mph N/A Snow Blowing Snow
6:55 AM 14.0 °F -7.1 °F 5.0 °F 67% 29.85 in 10.0 mi NNW 31.1 mph 38.0 mph N/A   Overcast
6:58 AM 14.0 °F -5.8 °F 5.0 °F 67% 29.83 in 10.0 mi NNW 26.5 mph 39.1 mph 0.00 in   Overcast
7:02 AM 14.0 °F -5.5 °F 5.0 °F 67% 29.86 in 10.0 mi NNW 25.3 mph 39.1 mph N/A Snow Light Snow
7:07 AM 14.0 °F -5.8 °F 6.8 °F 73% 29.85 in 4.0 mi NNW 26.5 mph 36.8 mph N/A Snow Light Snow
7:12 AM 14.0 °F -6.8 °F 6.8 °F 73% 29.85 in 3.0 mi NNW 29.9 mph 36.8 mph N/A Snow Light Snow
7:17 AM 14.0 °F -6.8 °F 6.8 °F 73% 29.85 in 2.0 mi NNW 29.9 mph 38.0 mph N/A Snow Light Snow
7:22 AM 14.0 °F -7.1 °F 6.8 °F 73% 29.85 in 1.5 mi NNW 31.1 mph 38.0 mph N/A Snow Light Snow
7:32 AM 14.0 °F -7.4 °F 6.8 °F 73% 29.83 in 1.0 mi NNW 32.2 mph 40.3 mph N/A Snow Light Snow
7:42 AM 12.2 °F -9.6 °F 6.8 °F 79% 29.83 in 1.2 mi NNW 31.1 mph 44.9 mph N/A Snow Blowing Snow
7:52 AM 12.2 °F -8.6 °F 6.8 °F 79% 29.84 in 2.5 mi NNW 27.6 mph 38.0 mph N/A Snow Light Snow
7:58 AM 12.9 °F -7.3 °F 6.4 °F 75% 29.96 in 2.5 mi NNW 26.5 mph 36.8 mph 0.00 in Snow Light Snow
8:08 AM 12.2 °F -9.6 °F 6.8 °F 79% 29.85 in 1.8 mi NNW 31.1 mph 38.0 mph N/A Snow Light Snow
8:18 AM 12.2 °F -8.6 °F 5.0 °F 73% 29.86 in 2.0 mi NNW 27.6 mph 41.4 mph N/A Snow Light Snow
8:38 AM 12.2 °F -7.9 °F 5.0 °F 73% 29.86 in 2.5 mi NNW 25.3 mph 40.3 mph N/A Snow Light Snow
8:48 AM 12.2 °F -9.3 °F 6.8 °F 79% 29.87 in 1.8 mi NNW 29.9 mph 39.1 mph N/A Snow Light Snow
8:58 AM 12.4 °F -9.3 °F 5.9 °F 75% 29.98 in 1.2 mi NNW 31.1 mph 41.4 mph 0.00 in Snow Light Snow
9:38 AM 12.2 °F -8.2 °F 6.8 °F 79% 29.88 in 1.8 mi NNW 26.5 mph 38.0 mph N/A Snow Light Snow
9:43 AM 12.2 °F -9.9 °F 6.8 °F 79% 29.87 in 2.0 mi NNW 32.2 mph 39.1 mph N/A Snow Light Snow
9:48 AM 12.2 °F -9.3 °F 6.8 °F 79% 29.87 in 1.8 mi NNW 29.9 mph 42.6 mph N/A Snow Light Snow
9:53 AM 12.2 °F -9.9 °F 5.0 °F 73% 29.87 in 1.8 mi NNW 32.2 mph 42.6 mph N/A Snow Light Snow
9:58 AM 12.6 °F -9.1 °F 5.5 °F 74% 30.01 in 2.5 mi NNW 31.1 mph 43.7 mph 0.00 in Snow Light Snow
10:03 AM 12.2 °F -8.6 °F 5.0 °F 73% 29.86 in 1.8 mi North 27.6 mph 43.7 mph N/A Snow Light Snow
10:13 AM 12.2 °F -8.9 °F 5.0 °F 73% 29.88 in 1.0 mi NNW 28.8 mph 43.7 mph N/A Snow Light Snow
10:28 AM 12.2 °F -9.9 °F 6.8 °F 79% 29.88 in 0.8 mi NNW 32.2 mph 41.4 mph N/A Snow Light Snow
10:38 AM 12.2 °F -8.9 °F 6.8 °F 79% 29.89 in 0.8 mi NNW 28.8 mph 42.6 mph N/A Snow Light Snow
10:43 AM 14.0 °F -7.4 °F 6.8 °F 73% 29.89 in 1.2 mi NNW 32.2 mph 40.3 mph N/A Snow Light Snow
10:53 AM 14.0 °F -6.5 °F 6.8 °F 73% 29.90 in 2.0 mi NNW 28.8 mph 40.3 mph N/A Snow Light Snow
10:58 AM 14.2 °F -4.9 °F 6.6 °F 72% 30.04 in 2.0 mi NNW 24.2 mph 38.0 mph 0.00 in Snow Light Snow
11:08 AM 15.8 °F -5.5 °F 6.8 °F 68% 29.90 in 3.0 mi NNW 34.5 mph 40.3 mph N/A Snow Light Snow
11:13 AM 15.8 °F -4.1 °F 6.8 °F 68% 29.90 in 2.0 mi NNW 28.8 mph 42.6 mph N/A Snow Light Snow
11:23 AM 15.8 °F -5.2 °F 8.6 °F 73% 29.89 in 3.0 mi NNW 33.4 mph 42.6 mph N/A Snow Light Snow
11:38 AM 17.6 °F -2.2 °F 8.6 °F 68% 29.89 in 2.0 mi NNW 31.1 mph 41.4 mph N/A Snow Light Snow
11:48 AM 15.8 °F -5.0 °F 6.8 °F 68% 29.89 in 3.0 mi NNW 32.2 mph 42.6 mph N/A Snow Light Snow
11:58 AM 15.4 °F -6.0 °F 5.7 °F 65% 30.04 in 4.0 mi NNW 34.5 mph 43.7 mph 0.00 in Snow Light Snow
12:03 PM 15.8 °F -5.2 °F 5.0 °F 62% 29.89 in 7.0 mi NNW 33.4 mph 43.7 mph N/A Snow Light Snow
12:18 PM 15.8 °F -5.2 °F 5.0 °F 62% 29.89 in 6.0 mi NNW 33.4 mph 42.6 mph N/A Snow Light Snow
12:24 PM 15.8 °F -4.4 °F 5.0 °F 62% 29.89 in 9.0 mi NNW 29.9 mph 42.6 mph N/A   Overcast
12:47 PM 14.0 °F -6.8 °F 5.0 °F 67% 29.89 in 7.0 mi NNW 29.9 mph 36.8 mph N/A Snow Light Snow
12:52 PM 14.0 °F -6.8 °F 5.0 °F 67% 29.89 in 4.0 mi NNW 29.9 mph 35.7 mph N/A Snow Light Snow
12:57 PM 14.0 °F -6.5 °F 5.0 °F 67% 29.89 in 3.0 mi NNW 28.8 mph 36.8 mph N/A Snow Light Snow
12:58 PM 14.0 °F -6.5 °F 5.0 °F 67% 30.07 in 3.0 mi NNW 28.8 mph 36.8 mph 0.00 in Snow Light Snow
1:03 PM 14.0 °F -6.5 °F 6.8 °F 73% 29.89 in 2.5 mi NNW 28.8 mph 36.8 mph N/A Snow Light Snow
1:08 PM 14.0 °F -7.1 °F 6.8 °F 73% 29.90 in 1.8 mi NNW 31.1 mph 36.8 mph N/A Snow Light Snow
1:18 PM 14.0 °F -6.8 °F 6.8 °F 73% 29.89 in 1.0 mi NNW 29.9 mph 36.8 mph N/A Snow Light Snow
1:23 PM 14.0 °F -7.4 °F 6.8 °F 73% 29.88 in 1.2 mi NNW 32.2 mph 36.8 mph N/A Snow Light Snow
1:33 PM 14.0 °F -7.4 °F 5.0 °F 67% 29.86 in 3.0 mi NNW 32.2 mph 39.1 mph N/A Snow Light Snow
1:38 PM 14.0 °F -6.5 °F 5.0 °F 67% 29.87 in 6.0 mi NNW 28.8 mph 39.1 mph N/A Snow Light Snow
1:58 PM 15.3 °F -6.0 °F 5.0 °F 64% 30.04 in 5.0 mi North 33.4 mph 42.6 mph 0.00 in Snow Light Snow
2:03 PM 15.8 °F -3.7 °F 6.8 °F 68% 29.87 in 2.5 mi NNW 27.6 mph 42.6 mph N/A Snow Light Snow
2:13 PM 15.8 °F -4.7 °F 6.8 °F 68% 29.87 in 3.0 mi NNW 31.1 mph 38.0 mph N/A Snow Light Snow
2:18 PM 15.8 °F -4.1 °F 6.8 °F 68% 29.88 in 4.0 mi NNW 28.8 mph 38.0 mph N/A Snow Light Snow
2:23 PM 15.8 °F -4.4 °F 6.8 °F 68% 29.89 in 6.0 mi NNW 29.9 mph 38.0 mph N/A Snow Light Snow
2:38 PM 15.8 °F -4.1 °F 6.8 °F 68% 29.89 in 4.0 mi NNW 28.8 mph 38.0 mph N/A Snow Light Snow
2:48 PM 15.8 °F -3.4 °F 6.8 °F 68% 29.89 in 3.0 mi NNW 26.5 mph 41.4 mph N/A Snow Light Snow
2:58 PM 16.2 °F -3.9 °F 7.2 °F 68% 30.06 in 3.0 mi NNW 29.9 mph 36.8 mph 0.00 in Snow Light Snow
3:13 PM 15.8 °F -4.4 °F 6.8 °F 68% 29.89 in 4.0 mi NNW 29.9 mph 40.3 mph N/A Snow Light Snow
3:23 PM 15.8 °F -4.7 °F 5.0 °F 62% 29.90 in 5.0 mi NNW 31.1 mph 40.3 mph N/A Snow Light Snow
3:33 PM 15.8 °F -3.7 °F 5.0 °F 62% 29.91 in 8.0 mi NNW 27.6 mph 38.0 mph N/A Snow Light Snow
3:58 PM 15.1 °F -3.3 °F 4.8 °F 64% 30.11 in 8.0 mi NNW 23.0 mph 34.5 mph 0.00 in Snow Light Snow
4:18 PM 14.0 °F -5.8 °F 5.0 °F 67% 29.91 in 7.0 mi NNW 26.5 mph 33.4 mph N/A Snow Light Snow
4:38 PM 14.0 °F -4.3 °F 5.0 °F 67% 29.93 in 4.0 mi North 21.9 mph 28.8 mph N/A Snow Light Snow
4:43 PM 14.0 °F -4.3 °F 5.0 °F 67% 29.93 in 7.0 mi North 21.9 mph 27.6 mph N/A Snow Light Snow
4:58 PM 15.1 °F -4.0 °F 6.1 °F 68% 30.14 in 8.0 mi North 25.3 mph 32.2 mph 0.00 in Snow Light Snow
5:08 PM 15.8 °F -2.3 °F 6.8 °F 68% 29.93 in 8.0 mi North 23.0 mph 32.2 mph N/A Snow Light Snow
5:18 PM 15.8 °F -2.7 °F 5.0 °F 62% 29.93 in 9.0 mi North 24.2 mph 32.2 mph N/A Snow Light Snow
5:53 PM 14.0 °F -5.5 °F 3.2 °F 62% 29.95 in 10.0 mi North 25.3 mph 33.4 mph N/A Snow Light Snow
5:58 PM 13.5 °F -5.4 °F 3.9 °F 66% 30.17 in 9.0 mi North 23.0 mph 32.2 mph 0.00 in Snow Light Snow
6:18 PM 12.2 °F -6.3 °F 5.0 °F 73% 29.97 in 9.0 mi North 20.7 mph 33.4 mph N/A Snow Light Snow
6:19 PM 12.2 °F -7.1 °F 3.2 °F 67% 29.97 in 10.0 mi NNW 23.0 mph 33.4 mph N/A   Overcast
6:31 PM 12.2 °F -7.1 °F 3.2 °F 67% 29.98 in 10.0 mi NNW 23.0 mph 33.4 mph N/A Snow Light Snow
6:36 PM 12.2 °F -7.5 °F 3.2 °F 67% 29.97 in 10.0 mi NNW 24.2 mph 31.1 mph N/A Snow Light Snow
6:41 PM 12.2 °F -7.9 °F 3.2 °F 67% 29.97 in 10.0 mi North 25.3 mph 31.1 mph N/A   Overcast
6:46 PM 12.2 °F -5.3 °F 3.2 °F 67% 29.98 in 10.0 mi North 18.4 mph 31.1 mph N/A   Overcast
6:56 PM 12.2 °F -7.9 °F 3.2 °F 67% 29.98 in 10.0 mi North 25.3 mph 31.1 mph N/A   Mostly Cloudy
6:58 PM 12.2 °F -7.9 °F 3.7 °F 69% 30.21 in 10.0 mi North 25.3 mph 31.1 mph 0.00 in   Mostly Cloudy
7:16 PM 12.2 °F -7.1 °F 3.2 °F 67% 29.99 in 10.0 mi North 23.0 mph 28.8 mph N/A   Light Freezing Rain
7:22 PM 10.4 °F -9.5 °F 3.2 °F 73% 29.99 in 10.0 mi North 23.0 mph - N/A   Scattered Clouds
7:37 PM 10.4 °F -9.1 °F 3.2 °F 73% 30.00 in 10.0 mi North 21.9 mph 25.3 mph N/A Snow Light Snow
7:42 PM 10.4 °F -9.5 °F 3.2 °F 73% 30.00 in 9.0 mi North 23.0 mph 26.5 mph N/A   Mostly Cloudy
7:47 PM 10.4 °F -8.2 °F 3.2 °F 73% 29.99 in 8.0 mi North 19.6 mph 26.5 mph N/A   Mostly Cloudy
7:58 PM 10.0 °F -8.1 °F 2.5 °F 72% 30.25 in 9.0 mi North 18.4 mph 26.5 mph 0.00 in   Mostly Cloudy
8:03 PM 10.4 °F -9.1 °F 1.4 °F 67% 30.00 in 10.0 mi North 21.9 mph 24.2 mph N/A   Light Freezing Rain
8:13 PM 10.4 °F -9.1 °F 1.4 °F 67% 30.00 in 10.0 mi NNW 21.9 mph 28.8 mph N/A   Light Freezing Rain
8:23 PM 8.6 °F -12.3 °F 1.4 °F 73% 30.00 in 10.0 mi North 24.2 mph 29.9 mph N/A   Light Freezing Rain
8:29 PM 8.6 °F -12.3 °F 1.4 °F 73% 30.00 in 10.0 mi NNW 24.2 mph 29.9 mph N/A   Mostly Cloudy
8:44 PM 8.6 °F -11.9 °F 3.2 °F 79% 30.00 in 9.0 mi NNW 23.0 mph - N/A Snow Light Snow
8:58 PM 9.7 °F -11.2 °F 2.7 °F 73% 30.25 in 9.0 mi North 25.3 mph 28.8 mph 0.00 in Snow Light Snow
9:02 PM 8.6 °F -12.3 °F 1.4 °F 73% 30.00 in 10.0 mi North 24.2 mph 33.4 mph N/A   Mostly Cloudy
9:03 PM 8.6 °F -11.9 °F 1.4 °F 73% 30.00 in 10.0 mi North 23.0 mph 33.4 mph N/A   Light Freezing Rain
9:07 PM 8.6 °F -12.3 °F 1.4 °F 73% 30.01 in 10.0 mi North 24.2 mph 33.4 mph N/A   Mostly Cloudy
9:12 PM 8.6 °F -12.7 °F 1.4 °F 73% 30.01 in 10.0 mi North 25.3 mph 31.1 mph N/A   Light Freezing Rain
9:17 PM 8.6 °F -12.3 °F 1.4 °F 73% 30.01 in 10.0 mi North 24.2 mph 31.1 mph N/A   Light Freezing Rain
9:29 PM 8.6 °F -11.9 °F 1.4 °F 73% 30.02 in 10.0 mi NNW 23.0 mph 29.9 mph N/A   Mostly Cloudy
9:54 PM 8.6 °F -11.9 °F 1.4 °F 73% 30.01 in 9.0 mi North 23.0 mph 29.9 mph N/A   Overcast
9:58 PM 8.6 °F -12.3 °F 3.2 °F 79% 30.28 in 9.0 mi North 24.2 mph 31.1 mph 0.00 in   Overcast
10:15 PM 8.6 °F -11.9 °F 3.2 °F 79% 30.01 in 6.0 mi NNW 23.0 mph 28.8 mph N/A Snow Blowing Snow
10:34 PM 8.6 °F -12.3 °F 1.4 °F 73% 30.00 in 8.0 mi NNW 24.2 mph 31.1 mph N/A   Overcast
10:49 PM 8.6 °F -11.9 °F 1.4 °F 73% 29.99 in 10.0 mi North 23.0 mph 33.4 mph N/A   Overcast
10:53 PM 8.6 °F -12.3 °F 1.4 °F 73% 29.99 in 10.0 mi NNW 24.2 mph 33.4 mph N/A   Light Freezing Rain
10:58 PM 9.0 °F -12.2 °F 1.9 °F 73% 30.24 in 10.0 mi NNW 25.3 mph 34.5 mph 0.00 in   Light Freezing Rain
10:59 PM 8.6 °F -13.4 °F 1.4 °F 73% 29.99 in 10.0 mi NNW 27.6 mph 35.7 mph N/A   Overcast
11:15 PM 8.6 °F -13.1 °F 1.4 °F 73% 29.99 in 10.0 mi North 26.5 mph 33.4 mph N/A   Light Freezing Rain
11:35 PM 8.6 °F -11.4 °F 1.4 °F 73% 29.98 in 10.0 mi NNW 21.9 mph 28.8 mph N/A   Light Freezing Rain
11:45 PM 8.6 °F -11.9 °F 1.4 °F 73% 30.00 in 10.0 mi NNW 23.0 mph 29.9 mph N/A   Light Freezing Rain
11:50 PM 8.6 °F -11.4 °F 1.4 °F 73% 30.00 in 10.0 mi NNW 21.9 mph 29.9 mph N/A   Light Freezing Rain
11:55 PM 8.6 °F -11.0 °F 1.4 °F 73% 29.99 in 10.0 mi NNW 20.7 mph 27.6 mph N/A   Light Freezing Rain
11:58 PM 8.6 °F -11.9 °F 1.4 °F 73% 30.24 in 10.0 mi NNW 23.0 mph 27.6 mph 0.00 in   Light Freezing Rain